Regional Weather Roundup
Issued by NWS Jackson, KY

Home | Current Version | Previous Version | Text Only | Print | Product List | Glossary On
Versions: 1 2 3 4 5 6 7 8 9 10 11 12 13 14 15 16 17 18 19 20 21 22 23 24 25 26 27 28 29 30 31 32 33 34 35 36 37 38 39 40 41 42 43 44 45 46 47 48 49 50
000
ASUS43 KJKL 200810
RWRJKL

EAST KENTUCKY HOURLY WEATHER ROUNDUP
NATIONAL WEATHER SERVICE JACKSON KY
300 AM EST FRI JAN 20 2017

NOTE: "FAIR" INDICATES FEW OR NO CLOUDS BELOW 12,000 FEET WITH
NO SIGNIFICANT WEATHER AND/OR OBSTRUCTIONS TO VISIBILITY.

* THESE REPORTS ARE NOT UNDER NWS QUALITY CONTROL AND MAY NOT
  REPORT WEATHER SUCH AS PRECIPITATION AND FOG.

KYZ079-080-083-085-087-088-110-112-115-119-120-200900
...EASTERN KENTUCKY...

CITY           SKY/WX    TMP DP  RH WIND       PRES   REMARKS
JACKSON        LGT RAIN  54  46  74 SE6       29.68F
LONDON         RAIN      53  48  83 S5        29.68F
SOMERSET*      LGT RAIN  54  54 100 S12       29.69S
MONTICELLO*    LGT RAIN  56  54  93 SE5       29.71S
MIDDLESBORO*   LGT RAIN  50  50 100 CALM      29.73S
HARLAN APT*    CLOUDY    57  43  58 SE6       29.72S
PIKE CO APT*   LGT RAIN  56  45  66 SE10      29.71F
MOREHEAD APT*  LGT RAIN  48  46  93 VRB7      29.68F
ASHLAND*       CLOUDY    46  45  93 SE5       29.69F
$$

KYZ035-036-041-042-044-050-067-078-099-200900
...CENTRAL KENTUCKY...

CITY           SKY/WX    TMP DP  RH WIND       PRES   REMARKS
MT STERLING*   RAIN      52  50  93 S9        29.66F
FLEMING/MASON* RAIN      47  47  97 SE9       29.66F
DANVILLE*      LGT RAIN  52  52 100 S8        29.66F
LEXINGTON      LGT RAIN  54  51  90 S14       29.64S
FRANKFORT      LGT RAIN  55  51  86 S10       29.61S
LOUISVILLE     RAIN      53  50  89 W3        29.62R FOG
LEBANON*       CLOUDY    55  55 100 S12G18    29.65R FOG
GLASGOW*       CLOUDY   N/A N/A N/A SW6       29.68R
BOWLING GREEN  CLOUDY    58  55  90 SW6       29.68R
$$

KYZ091>093-OHZ055-061-077-WVZ005-015-034-035-042-200900
...SOUTHERN OHIO/WEST VIRGINIA...

CITY           SKY/WX    TMP DP  RH WIND       PRES   REMARKS
COVINGTON      RAIN      49  49 100 SE12      29.59F FOG
COLUMBUS       LGT RAIN  42  38  85 E14       29.72F
DAYTON         LGT RAIN  42  41  96 E18       29.63F FOG
WILMINGTON     LGT RAIN  43  42  97 E14       29.65F FOG
HUNTINGTON     LGT RAIN  47  44  90 E3        29.70F
CHARLESTON     CLOUDY    45  42  89 NE5       29.73F
PINEVILLE*     CLOUDY    48  43  81 MISG      29.84S
BECKLEY        CLOUDY    48  37  65 S10       29.82F
BLUEFIELD      CLOUDY    50  35  56 S9G21     29.85S
LOGAN CO APT*  CLOUDY    57  39  51 CALM      29.74F
$$

VAZ002-007-008-TNZ017-027-036-066-071-200900
...SOUTHWEST VIRGINIA/EAST TENNESSEE...

CITY           SKY/WX    TMP DP  RH WIND       PRES   REMARKS
WISE*          DRIZZLE   54  43  66 S10G16    29.77F
JONESVILLE*    LGT RAIN  54  48  82 CALM      29.75F
ABINGDON*      CLOUDY    55  43  64 CALM      29.80F
BRISTOL        LGT RAIN  55  45  68 CALM      29.78F
MORRISTOWN*    PTSUNNY   54  48  82 E3        29.72F
SEVIERVILLE*   PTSUNNY   52  48  87 CALM      29.71F
KNOXVILLE      LGT RAIN  51  49  92 NW5       29.73R FOG
LAFOLLETTE*    PTSUNNY   50  48  93 CALM      29.78R FOG
OAK RIDGE      LGT RAIN  53  51  93 CALM      29.76R FOG
CROSSVILLE     CLOUDY    53  51  93 SW8       29.75R
NASHVILLE      CLOUDY    57  55  93 SE6       29.72R
$$

...KEY TO REMARKS...
VSB - VISIBILITY IN MILES
WCI - WIND CHILL INDEX
HX  - HEAT INDEX

$$



USA.gov is the U.S. government's official web portal to all federal, state and local government web resources and services.